Time,TemperatureF,DewpointF,PressureIn,WindDirection,WindDirectionDegrees,WindSpeedMPH,WindSpeedGustMPH,Humidity,HourlyPrecipIn,Conditions,Clouds,dailyrainin,SoftwareType,DateUTC
2013-07-23 00:22:00,73.0,70.0,29.82,SW,218,1.0,2.0,91,0.00,,,1.42,,2013-07-23 04:22:00,
2013-07-23 00:32:00,73.0,70.0,29.81,South,186,1.0,2.0,91,0.00,,,1.42,,2013-07-23 04:32:00,
2013-07-23 00:43:00,73.0,70.0,29.83,WSW,246,1.0,3.0,91,0.00,,,1.42,,2013-07-23 04:43:00,
2013-07-23 00:53:00,72.0,69.0,29.83,WSW,241,0.0,2.0,91,0.00,,,1.42,,2013-07-23 04:53:00,
2013-07-23 01:02:00,72.0,69.0,29.84,SW,215,0.0,1.0,91,0.00,,,1.42,,2013-07-23 05:02:00,
2013-07-23 01:11:00,72.0,69.0,29.84,SW,229,0.0,1.0,91,0.00,,,1.42,,2013-07-23 05:11:00,
2013-07-23 01:22:00,72.0,69.0,29.84,SW,226,1.0,2.0,91,0.00,,,1.42,,2013-07-23 05:22:00,
2013-07-23 01:33:00,72.0,69.0,29.85,SW,226,1.0,4.0,91,0.00,,,1.42,,2013-07-23 05:33:00,
2013-07-23 01:44:00,72.0,69.0,29.84,SW,235,2.0,5.0,90,0.00,,,1.42,,2013-07-23 05:44:00,
2013-07-23 01:52:00,73.0,70.0,29.85,WSW,248,2.0,5.0,90,0.00,,,1.42,,2013-07-23 05:52:00,
2013-07-23 02:01:00,73.0,70.0,29.84,SW,222,2.0,5.0,89,0.00,,,1.42,,2013-07-23 06:01:00,
2013-07-23 02:11:00,73.0,70.0,29.84,SW,235,2.0,4.0,89,0.00,,,1.42,,2013-07-23 06:11:00,
2013-07-23 02:22:00,73.0,70.0,29.84,SW,235,2.0,4.0,89,0.00,,,1.42,,2013-07-23 06:22:00,
2013-07-23 02:33:00,72.0,69.0,29.83,SW,219,1.0,3.0,90,0.00,,,1.42,,2013-07-23 06:33:00,
2013-07-23 02:42:00,72.0,69.0,29.83,WSW,255,2.0,4.0,91,0.00,,,1.42,,2013-07-23 06:42:00,
2013-07-23 02:52:00,72.0,69.0,29.83,SW,224,2.0,5.0,91,0.00,,,1.42,,2013-07-23 06:52:00,
2013-07-23 03:01:00,72.0,70.0,29.81,SW,229,2.0,4.0,92,0.00,,,1.42,,2013-07-23 07:01:00,
2013-07-23 03:12:00,72.0,70.0,29.81,SW,215,2.0,6.0,92,0.00,,,1.42,,2013-07-23 07:12:00,
2013-07-23 03:42:00,72.0,69.0,29.82,WNW,295,3.0,7.0,91,0.00,,,1.15,,2013-07-23 07:42:00,
2013-07-23 03:52:00,73.0,70.0,29.84,NNE,16,4.0,9.0,91,0.00,,,1.15,,2013-07-23 07:52:00,
2013-07-23 04:11:00,73.0,69.0,29.82,ENE,59,1.0,6.0,88,0.00,,,1.15,,2013-07-23 08:11:00,
2013-07-23 04:22:00,73.0,69.0,29.80,ENE,60,2.0,5.0,86,0.00,,,1.15,,2013-07-23 08:22:00,
2013-07-23 04:33:00,73.0,68.0,29.79,NNE,30,0.0,4.0,84,0.00,,,0.61,,2013-07-23 08:33:00,
2013-07-23 04:43:00,72.0,67.0,29.77,ENE,67,3.0,3.0,85,0.00,,,0.61,,2013-07-23 08:43:00,
2013-07-23 04:52:00,72.0,68.0,29.76,SW,232,5.0,6.0,86,0.00,,,0.61,,2013-07-23 08:52:00,
2013-07-23 05:01:00,71.0,67.0,29.74,SE,127,3.0,7.0,87,0.00,,,0.61,,2013-07-23 09:01:00,
2013-07-23 05:11:00,71.0,67.0,29.73,SSW,204,3.0,5.0,87,0.00,,,0.61,,2013-07-23 09:11:00,
2013-07-23 05:22:00,71.0,67.0,29.73,SSW,212,4.0,6.0,86,0.00,,,0.61,,2013-07-23 09:22:00,
2013-07-23 05:33:00,71.0,67.0,29.77,WSW,256,2.0,7.0,88,0.00,,,0.33,,2013-07-23 09:33:00,
2013-07-23 05:42:00,71.0,68.0,29.77,SW,231,3.0,7.0,91,0.00,,,0.33,,2013-07-23 09:42:00,
2013-07-23 05:53:00,71.0,68.0,29.78,West,268,1.0,8.0,91,0.00,,,0.33,,2013-07-23 09:53:00,
2013-07-23 06:11:00,70.0,68.0,29.78,SSW,197,3.0,6.0,93,0.00,,,0.33,,2013-07-23 10:11:00,
2013-07-23 06:22:00,70.0,68.0,29.77,SW,224,3.0,7.0,93,0.00,,,0.33,,2013-07-23 10:22:00,
2013-07-23 06:32:00,70.0,68.0,29.77,South,177,2.0,7.0,93,0.00,,,0.15,,2013-07-23 10:32:00,
2013-07-23 06:44:00,70.0,68.0,29.78,NNE,19,1.0,5.0,93,0.00,,,0.15,,2013-07-23 10:44:00,
2013-07-23 06:52:00,70.0,68.0,29.79,NNE,26,1.0,3.0,92,0.00,,,0.15,,2013-07-23 10:52:00,
2013-07-23 07:02:00,70.0,68.0,29.79,NNE,23,0.0,1.0,92,0.00,,,0.15,,2013-07-23 11:02:00,
2013-07-23 07:12:00,70.0,68.0,29.78,NNE,23,0.0,1.0,93,0.00,,,0.15,,2013-07-23 11:12:00,
2013-07-23 07:22:00,69.0,67.0,29.79,NNE,23,0.0,0.0,94,0.00,,,0.15,,2013-07-23 11:22:00,
2013-07-23 07:32:00,70.0,68.0,29.78,NNE,23,0.0,0.0,94,0.00,,,0.01,,2013-07-23 11:32:00,
2013-07-23 07:43:00,70.0,68.0,29.78,WNW,302,0.0,1.0,94,0.00,,,0.01,,2013-07-23 11:43:00,
2013-07-23 07:52:00,71.0,69.0,29.78,WNW,302,0.0,1.0,94,0.00,,,0.01,,2013-07-23 11:52:00,
2013-07-23 08:02:00,72.0,69.0,29.78,WNW,302,0.0,0.0,91,0.00,,,0.01,,2013-07-23 12:02:00,
2013-07-23 08:43:00,73.0,69.0,29.80,WNW,287,2.0,4.0,88,0.00,,,0.01,,2013-07-23 12:43:00,
2013-07-23 09:11:00,73.0,69.0,29.79,SSE,163,3.0,5.0,86,0.00,,,0.01,,2013-07-23 13:11:00,
2013-07-23 09:22:00,74.0,69.0,29.79,West,264,3.0,6.0,84,0.00,,,0.01,,2013-07-23 13:22:00,
2013-07-23 09:32:00,75.0,70.0,29.79,West,259,2.0,5.0,84,0.00,,,0.00,,2013-07-23 13:32:00,
2013-07-23 09:43:00,76.0,70.0,29.79,West,259,3.0,6.0,82,0.00,,,0.00,,2013-07-23 13:43:00,
2013-07-23 09:52:00,77.0,71.0,29.79,SSW,205,3.0,7.0,81,0.00,,,0.00,,2013-07-23 13:52:00,
2013-07-23 10:02:00,78.0,71.0,29.80,WSW,249,2.0,5.0,79,0.00,,,0.00,,2013-07-23 14:02:00,
2013-07-23 10:44:00,79.0,71.0,29.80,West,270,3.0,9.0,76,0.00,,,0.00,,2013-07-23 14:44:00,
2013-07-23 10:53:00,79.0,70.0,29.80,WSW,245,3.0,9.0,74,0.00,,,0.00,,2013-07-23 14:53:00,
2013-07-23 11:11:00,80.0,69.0,29.80,NNW,329,4.0,11.0,69,0.00,,,0.00,,2013-07-23 15:11:00,
2013-07-23 11:24:00,81.0,71.0,29.81,West,266,2.0,8.0,71,0.00,,,0.00,,2013-07-23 15:24:00,
2013-07-23 11:32:00,81.0,69.0,29.81,NW,311,6.0,12.0,66,0.00,,,0.00,,2013-07-23 15:32:00,
2013-07-23 11:43:00,81.0,70.0,29.81,West,260,2.0,8.0,69,0.00,,,0.00,,2013-07-23 15:43:00,
2013-07-23 11:52:00,81.0,69.0,29.82,West,262,2.0,10.0,67,0.00,,,0.00,,2013-07-23 15:52:00,
2013-07-23 12:01:00,81.0,69.0,29.82,West,281,4.0,10.0,66,0.00,,,0.00,,2013-07-23 16:01:00,
2013-07-23 12:12:00,81.0,69.0,29.82,WNW,291,4.0,9.0,67,0.00,,,0.00,,2013-07-23 16:12:00,
2013-07-23 12:22:00,80.0,69.0,29.83,WSW,257,3.0,12.0,69,0.00,,,0.00,,2013-07-23 16:22:00,
2013-07-23 12:33:00,81.0,69.0,29.83,WNW,302,2.0,7.0,67,0.00,,,0.00,,2013-07-23 16:33:00,
2013-07-23 12:43:00,81.0,69.0,29.83,NE,43,3.0,11.0,66,0.00,,,0.00,,2013-07-23 16:43:00,
2013-07-23 12:52:00,81.0,69.0,29.83,NNW,340,3.0,8.0,67,0.00,,,0.00,,2013-07-23 16:52:00,
2013-07-23 13:02:00,81.0,69.0,29.82,WNW,295,2.0,11.0,67,0.00,,,0.00,,2013-07-23 17:02:00,
2013-07-23 13:42:00,84.0,70.0,29.81,NW,319,3.0,10.0,64,0.00,,,0.00,,2013-07-23 17:42:00,
2013-07-23 13:54:00,83.0,70.0,29.82,NW,311,4.0,10.0,66,0.00,,,0.00,,2013-07-23 17:54:00,
2013-07-23 14:04:00,83.0,70.0,29.81,NW,316,4.0,8.0,65,0.00,,,0.00,,2013-07-23 18:04:00,
2013-07-23 14:12:00,83.0,70.0,29.81,WNW,284,3.0,13.0,66,0.00,,,0.00,,2013-07-23 18:12:00,
2013-07-23 14:24:00,84.0,71.0,29.81,WNW,288,3.0,13.0,66,0.00,,,0.00,,2013-07-23 18:24:00,
2013-07-23 14:34:00,84.0,70.0,29.80,NNW,345,4.0,8.0,64,0.00,,,0.00,,2013-07-23 18:34:00,
2013-07-23 14:48:00,84.0,71.0,29.80,ENE,57,4.0,9.0,65,0.00,,,0.00,,2013-07-23 18:48:00,
2013-07-23 14:55:00,84.0,70.0,29.80,NNW,347,4.0,11.0,64,0.00,,,0.00,,2013-07-23 18:55:00,
2013-07-23 15:15:00,84.0,70.0,29.79,NNE,32,4.0,15.0,64,0.00,,,0.00,,2013-07-23 19:15:00,
2013-07-23 15:27:00,84.0,70.0,29.79,NW,326,3.0,12.0,64,0.00,,,0.00,,2013-07-23 19:27:00,
2013-07-23 15:33:00,84.0,71.0,29.78,North,353,2.0,10.0,65,0.00,,,0.00,,2013-07-23 19:33:00,
2013-07-23 15:53:00,84.0,70.0,29.78,WNW,284,4.0,11.0,64,0.00,,,0.00,,2013-07-23 19:53:00,
2013-07-23 16:06:00,84.0,70.0,29.78,North,358,4.0,10.0,63,0.00,,,0.00,,2013-07-23 20:06:00,
2013-07-23 16:45:00,84.0,69.0,29.79,NNE,32,3.0,10.0,60,0.00,,,0.00,,2013-07-23 20:45:00,
2013-07-23 16:56:00,84.0,69.0,29.79,West,281,3.0,8.0,61,0.00,,,0.00,,2013-07-23 20:56:00,
2013-07-23 17:23:00,83.0,67.0,29.79,NW,304,3.0,9.0,59,0.00,,,0.00,,2013-07-23 21:23:00,
2013-07-23 17:36:00,84.0,71.0,29.79,NNW,335,7.0,10.0,66,0.00,,,0.00,,2013-07-23 21:36:00,
2013-07-23 17:47:00,80.0,69.0,29.80,North,6,10.0,18.0,70,0.00,,,0.00,,2013-07-23 21:47:00,
2013-07-23 17:54:00,80.0,70.0,29.80,North,356,7.0,14.0,71,0.00,,,0.00,,2013-07-23 21:54:00,
2013-07-23 18:45:00,77.0,67.0,29.81,North,11,9.0,17.0,72,0.00,,,0.00,,2013-07-23 22:45:00,
2013-07-23 18:56:00,77.0,68.0,29.81,NW,320,6.0,14.0,73,0.00,,,0.00,,2013-07-23 22:56:00,
2013-07-23 19:13:00,75.0,65.0,29.82,NE,50,10.0,18.0,71,0.00,,,0.00,,2013-07-23 23:13:00,
2013-07-23 19:24:00,75.0,65.0,29.81,North,351,7.0,13.0,72,0.00,,,0.00,,2013-07-23 23:24:00,
2013-07-23 19:35:00,75.0,65.0,29.82,NNE,22,8.0,17.0,71,0.00,,,0.00,,2013-07-23 23:35:00,
2013-07-23 19:44:00,75.0,65.0,29.82,NE,40,7.0,12.0,72,0.00,,,0.00,,2013-07-23 23:44:00,
2013-07-23 19:56:00,75.0,65.0,29.83,NE,54,9.0,14.0,71,0.00,,,0.00,,2013-07-23 23:56:00,
2013-07-23 20:09:00,74.0,64.0,29.83,NNE,15,8.0,17.0,71,0.00,,,0.00,,2013-07-24 00:09:00,
2013-07-23 20:14:00,73.0,63.0,29.83,NE,41,11.0,16.0,71,0.00,,,0.00,,2013-07-24 00:14:00,
2013-07-23 20:26:00,73.0,63.0,29.84,NNE,32,9.0,15.0,70,0.00,,,0.00,,2013-07-24 00:26:00,
2013-07-23 20:34:00,73.0,63.0,29.83,NE,47,10.0,16.0,71,0.00,,,0.00,,2013-07-24 00:34:00,
2013-07-23 20:48:00,72.0,62.0,29.85,NNE,25,8.0,15.0,70,0.00,,,0.00,,2013-07-24 00:48:00,
2013-07-23 20:54:00,72.0,62.0,29.85,NE,34,6.0,12.0,71,0.00,,,0.00,,2013-07-24 00:54:00,
2013-07-23 21:04:00,71.0,62.0,29.85,NNE,18,7.0,16.0,72,0.00,,,0.00,,2013-07-24 01:04:00,
2013-07-23 21:14:00,71.0,62.0,29.85,NNE,23,8.0,12.0,73,0.00,,,0.00,,2013-07-24 01:14:00,
2013-07-23 21:33:00,70.0,61.0,29.87,ENE,63,5.0,12.0,73,0.00,,,0.00,,2013-07-24 01:33:00,
2013-07-23 21:44:00,70.0,60.0,29.87,North,6,8.0,13.0,71,0.00,,,0.00,,2013-07-24 01:44:00,
2013-07-23 21:57:00,69.0,60.0,29.88,North,359,6.0,13.0,72,0.00,,,0.00,,2013-07-24 01:57:00,
2013-07-23 22:17:00,68.0,59.0,29.88,NNE,12,8.0,14.0,72,0.00,,,0.00,,2013-07-24 02:17:00,
2013-07-23 22:47:00,67.0,58.0,29.91,NNE,29,9.0,16.0,73,0.00,,,0.00,,2013-07-24 02:47:00,
2013-07-23 22:55:00,67.0,58.0,29.91,NNE,32,5.0,12.0,74,0.00,,,0.00,,2013-07-24 02:55:00,
2013-07-23 23:04:00,66.0,57.0,29.92,NNE,23,7.0,12.0,73,0.00,,,0.00,,2013-07-24 03:04:00,
2013-07-23 23:37:00,66.0,57.0,29.93,North,359,5.0,10.0,74,0.00,,,0.00,,2013-07-24 03:37:00,
2013-07-23 23:45:00,66.0,57.0,29.93,North,359,5.0,10.0,74,0.00,,,0.00,,2013-07-24 03:45:00,